Location: Unspecified
(49.2170°N, 0.0000°E)
Time: 18:39:54
(UTC+00:00)

A-11 Canister half - Pass Details

Date: 30 January 2021
Orbit: 1516 x 1684 km, 47.2° (Epoch: 05 March)

Event Time Altitude Azimuth Distance (km) Brightness Sun altitude
Rises 22:50:22 0° 280° (W) 4,716 11.9 -54.0°
Reaches altitude 10° 22:53:27 10° 278° (W) 3,716 11.2 -54.3°
Enters shadow 22:54:40 15° 277° (W) 3,331 10.9 -54.4°
